Oxford, NC

9:15 PM EST on November 16, 2019 (GMT -0500)
Henderson-Oxford

Weather History for KHNZ - September, 2019

Change the Weather History Date:

Sunday, September 22, 2019

  Actual Average (WUND) Record (WUND)
Temperature  
Mean Temperature 74 °F -  
Max Temperature 88 °F - - (-1)
Min Temperature 60 °F - - (-1)
Cooling Degree Days 9    
Growing Degree Days 24 (Base 50)    
Moisture  
Dew Point 59 °F    
Average Humidity 65    
Maximum Humidity 91    
Minimum Humidity 36    
Precipitation  
Precipitation 0.00 in - - ()
Sea Level Pressure  
Sea Level Pressure 30.17 in    
Wind  
Wind Speed 2 mph (South)    
Max Wind Speed 9 mph    
Max Gust Speed -    
Visibility 10 miles    
Events      
Averages and records for this station are not official NWS values.
T = Trace of Precipitation, MM = Missing Value Source: NWS Daily Summary

Daily Weather History Graph

Daily Weather History Graph

Search for Another Location

Airport or City:

Astronomy

Sep. 22, 2019 Rise Set
Actual Time 7:01 AM EDT 7:11 PM EDT
Civil Twilight 6:36 AM EDT 7:37 PM EDT
Nautical Twilight 6:06 AM EDT 8:07 PM EDT
Astronomical Twilight 5:35 AM EDT 8:37 PM EDT
Moon 12:00 AM EDT (9/22) 2:54 PM EDT (9/22)
Length of Visible Light 13h 00m
Length of Day
12h 09m
Last Quarter, 44% of the Moon is Illuminated
Sep 22
Last Quarter
Sep 28
New
Oct 5
First Quarter
Oct 13
Full
Oct 21
Last Quarter

Hourly Weather History & Observations

Time (EDT) Temp. Heat Index Dew Point Humidity Pressure Visibility Wind Dir Wind Speed Gust Speed Precip Events Conditions
12:15 AM 66.9 °F - 59.5 °F 77% 30.23 in 10.0 mi Calm Calm - N/A   Clear
12:35 AM 67.1 °F - 59.9 °F 78% 30.24 in 10.0 mi Calm Calm - N/A   Clear
12:55 AM 66.6 °F - 59.9 °F 79% 30.23 in 10.0 mi South 6.9 mph - N/A   Clear
1:15 AM 66.0 °F - 59.9 °F 81% 30.23 in 10.0 mi SSW 6.9 mph - N/A   Clear
1:35 AM 66.7 °F - 59.9 °F 79% 30.23 in 10.0 mi SSW 6.9 mph - N/A   Clear
1:55 AM 66.6 °F - 59.5 °F 78% 30.23 in 10.0 mi Calm Calm - N/A   Clear
2:15 AM 66.2 °F - 59.5 °F 79% 30.22 in 10.0 mi Calm Calm - N/A   Scattered Clouds
2:35 AM 65.7 °F - 59.5 °F 81% 30.22 in 10.0 mi Calm Calm - N/A   Scattered Clouds
2:55 AM 64.6 °F - 59.5 °F 84% 30.22 in 10.0 mi Calm Calm - N/A   Clear
3:15 AM 63.5 °F - 59.4 °F 86% 30.21 in 10.0 mi Calm Calm - N/A   Clear
3:35 AM 62.8 °F - 59.2 °F 88% 30.21 in 10.0 mi Calm Calm - N/A   Clear
3:55 AM 62.6 °F - 59.0 °F 88% 30.21 in 10.0 mi Calm Calm - N/A   Clear
4:15 AM 62.6 °F - 59.0 °F 88% 30.21 in 10.0 mi Calm Calm - N/A   Clear
4:35 AM 63.3 °F - 59.0 °F 86% 30.20 in 10.0 mi Calm Calm - N/A   Clear
4:55 AM 63.0 °F - 58.6 °F 86% 30.20 in 10.0 mi Calm Calm - N/A   Clear
5:15 AM 62.6 °F - 58.5 °F 86% 30.20 in 10.0 mi Calm Calm - N/A   Clear
5:35 AM 62.2 °F - 58.5 °F 87% 30.20 in 10.0 mi Calm Calm - N/A   Clear
5:55 AM 62.1 °F - 58.5 °F 88% 30.20 in 10.0 mi Calm Calm - N/A   Clear
6:15 AM 61.7 °F - 58.3 °F 89% 30.20 in 10.0 mi Calm Calm - N/A   Clear
6:35 AM 61.2 °F - 58.1 °F 90% 30.21 in 10.0 mi Calm Calm - N/A   Clear
6:55 AM 60.8 °F - 58.1 °F 91% 30.20 in 10.0 mi Calm Calm - N/A   Clear
7:15 AM 61.2 °F - 58.1 °F 90% 30.20 in 10.0 mi Calm Calm - N/A   Clear
7:35 AM 62.1 °F - 58.1 °F 87% 30.20 in 10.0 mi Calm Calm - N/A   Clear
7:55 AM 62.8 °F - 58.5 °F 86% 30.21 in 10.0 mi Calm Calm - N/A   Clear
8:15 AM 64.4 °F - 58.5 °F 81% 30.21 in 10.0 mi Calm Calm - N/A   Clear
8:35 AM 66.0 °F - 58.5 °F 77% 30.21 in 10.0 mi Calm Calm - N/A   Clear
8:55 AM 67.6 °F - 58.3 °F 72% 30.22 in 10.0 mi Calm Calm - N/A   Clear
9:15 AM 69.3 °F - 58.3 °F 68% 30.22 in 10.0 mi Calm Calm - N/A   Clear
9:35 AM 71.2 °F - 58.5 °F 64% 30.22 in 10.0 mi Calm Calm - N/A   Clear
9:55 AM 72.9 °F - 58.8 °F 61% 30.22 in 10.0 mi Calm Calm - N/A   Clear
10:15 AM 74.5 °F - 58.8 °F 58% 30.22 in 10.0 mi Calm Calm - N/A   Clear
10:35 AM 76.5 °F - 59.2 °F 55% 30.22 in 10.0 mi Calm Calm - N/A   Clear
10:55 AM 77.7 °F - 59.4 °F 53% 30.22 in 10.0 mi Calm Calm - N/A   Clear
11:15 AM 79.3 °F - 59.7 °F 51% 30.22 in 10.0 mi Calm Calm - N/A   Clear
11:35 AM 80.4 °F 81.1 °F 59.7 °F 49% 30.21 in 10.0 mi Calm Calm - N/A   Clear
11:55 AM 81.7 °F 82.2 °F 60.1 °F 48% 30.20 in 10.0 mi Calm Calm - N/A   Clear
12:15 PM 82.8 °F 83.0 °F 60.3 °F 46% 30.19 in 10.0 mi Calm Calm - N/A   Clear
12:35 PM 84.0 °F 84.0 °F 59.9 °F 44% 30.19 in 10.0 mi Calm Calm - N/A   Clear
1:35 PM 85.1 °F 84.4 °F 58.3 °F 40% 30.16 in 10.0 mi Calm Calm - N/A   Clear
1:55 PM 86.5 °F 85.6 °F 58.3 °F 38% 30.14 in 10.0 mi Calm Calm - N/A   Clear
2:15 PM 87.1 °F 85.9 °F 57.4 °F 36% 30.13 in 10.0 mi SW 5.8 mph - N/A   Clear
2:35 PM 88.3 °F 87.3 °F 58.1 °F 36% 30.13 in 10.0 mi South 9.2 mph - N/A   Scattered Clouds
2:55 PM 86.0 °F 85.0 °F 57.9 °F 38% 30.12 in 10.0 mi Calm Calm - N/A   Scattered Clouds
3:15 PM 87.1 °F 86.1 °F 57.9 °F 37% 30.11 in 10.0 mi SW 8.1 mph - N/A   Scattered Clouds
3:35 PM 87.8 °F 86.9 °F 58.3 °F 37% 30.11 in 10.0 mi SSW 8.1 mph - N/A   Clear
3:55 PM 86.5 °F 85.6 °F 58.1 °F 38% 30.10 in 10.0 mi SSE 6.9 mph - N/A   Scattered Clouds
4:15 PM 86.9 °F 86.1 °F 58.3 °F 38% 30.10 in 10.0 mi SSW 9.2 mph - N/A   Scattered Clouds
4:55 PM 85.6 °F 84.8 °F 58.3 °F 39% 30.10 in 10.0 mi South 8.1 mph - N/A   Clear
5:15 PM 85.5 °F 84.8 °F 58.3 °F 40% 30.09 in 10.0 mi SSE 9.2 mph - N/A   Clear
5:35 PM 85.3 °F 84.6 °F 58.5 °F 40% 30.10 in 10.0 mi South 9.2 mph - N/A   Clear
5:55 PM 84.4 °F 83.8 °F 58.3 °F 41% 30.10 in 10.0 mi SSE 8.1 mph - N/A   Clear
6:15 PM 83.3 °F 82.9 °F 58.3 °F 42% 30.10 in 10.0 mi South 9.2 mph - N/A   Clear
6:35 PM 82.2 °F 82.3 °F 58.6 °F 45% 30.10 in 10.0 mi South 6.9 mph - N/A   Clear
6:55 PM 80.6 °F 81.0 °F 58.8 °F 47% 30.10 in 10.0 mi South 5.8 mph - N/A   Clear
7:15 PM 79.0 °F - 59.5 °F 51% 30.10 in 10.0 mi South 5.8 mph - N/A   Clear
7:35 PM 77.9 °F - 59.9 °F 54% 30.10 in 10.0 mi Calm Calm - N/A   Clear
7:55 PM 77.0 °F - 59.9 °F 55% 30.11 in 10.0 mi South 6.9 mph - N/A   Clear
8:15 PM 76.1 °F - 60.3 °F 58% 30.11 in 10.0 mi South 5.8 mph - N/A   Clear
8:35 PM 75.2 °F - 60.8 °F 61% 30.11 in 10.0 mi South 5.8 mph - N/A   Clear
8:55 PM 74.1 °F - 60.8 °F 63% 30.12 in 10.0 mi South 8.1 mph - N/A   Clear
9:15 PM 72.9 °F - 61.0 °F 66% 30.12 in 10.0 mi Calm Calm - N/A   Clear
9:35 PM 72.1 °F - 61.2 °F 68% 30.12 in 10.0 mi Calm Calm - N/A   Clear
9:55 PM 71.8 °F - 61.2 °F 69% 30.12 in 10.0 mi Calm Calm - N/A   Clear
10:15 PM 71.2 °F - 61.2 °F 70% 30.12 in 10.0 mi Calm Calm - N/A   Clear
10:35 PM 70.7 °F - 61.3 °F 72% 30.12 in 10.0 mi Calm Calm - N/A   Clear
11:15 PM 70.7 °F - 61.0 °F 71% 30.12 in 10.0 mi SSW 8.1 mph - N/A   Clear
11:35 PM 70.5 °F - 60.8 °F 71% 30.12 in 10.0 mi SSW 8.1 mph - N/A   Clear
11:55 PM 69.6 °F - 61.0 °F 74% 30.12 in 10.0 mi Calm Calm - N/A   Clear